Probability
10 7 5 4 2 0 0 0 0 0 0 0 0 0 0 0 0 0 0 0 0 0 1 1 0 1 2 3 3 2 3 6 8 8 6 5 5 4 3 3 3 4 3
9 8 7 5 3 1 0 0 0 0 0 0 0 0 0 0 0 0 0 0 0 0 1 1 0 0 1 2 2 1 2 4 4 4 3 2 2 2 2 2 3 4 4
8 7 7 6 4 1 0 0 0 0 0 0 0 0 0 0 0 0 0 0 0 0 1 1 0 0 0 1 2 1 0 1 1 1 1 0 0 1 1 1 1 3 4
5 5 5 5 4 1 0 0 0 0 0 0 0 0 0 0 0 0 0 0 0 0 0 0 0 0 0 1 1 0 0 0 0 0 0 1 1 1 1 1 0 1 3
2 3 4 4 3 1 0 0 0 0 0 0 0 0 0 0 0 0 0 0 0 0 0 0 0 0 0 0 0 0 0 0 0 0 0 1 2 2 2 2 1 1 2
0 1 3 3 2 1 0 0 0 0 0 0 0 0 0 0 0 0 0 0 0 0 0 0 0 0 0 0 0 0 0 0 0 0 0 1 2 2 2 2 2 2 2
0 1 2 3 2 1 0 0 0 0 0 0 0 0 0 0 0 0 0 0 0 0 0 0 0 0 0 0 0 0 0 0 0 0 0 0 1 1 2 2 1 2 1
0 0 1 2 2 1 0 0 0 0 0 0 0 0 0 0 0 0 0 0 0 0 0 0 0 0 0 0 0 0 0 0 0 0 0 0 0 0 1 1 1 1 1
0 0 0 1 1 0 0 0 0 0 0 0 0 0 0 0 0 0 0 0 0 0 0 0 0 0 0 0 0 0 0 0 0 0 0 0 0 0 0 0 0 1 1
0 0 1 2 2 1 0 0 0 0 0 0 0 0 0 0 0 0 0 0 0 0 0 0 0 0 0 0 0 0 0 0 0 0 0 0 0 0 0 0 0 0 0
0 0 1 2 2 1 0 0 0 0 0 0 0 0 0 0 0 0 0 0 0 0 0 0 0 0 0 0 0 0 0 0 0 0 0 0 0 0 0 0 0 0 0
0 0 1 2 2 1 0 0 0 0 0 0 0 0 0 0 0 0 0 0 0 0 0 0 0 0 0 0 0 0 0 0 0 0 0 0 0 0 0 0 0 0 1
0 0 0 1 1 1 0 0 0 0 0 0 0 0 0 0 0 0 0 0 0 0 0 0 0 0 0 0 0 0 0 0 0 0 0 0 0 0 0 0 0 0 1
0 0 1 1 1 0 0 0 0 0 0 0 0 0 0 0 0 0 0 0 0 0 0 0 0 0 0 0 0 0 0 0 0 0 0 0 0 0 0 0 0 0 1
0 1 2 2 1 0 0 0 0 0 0 0 0 0 0 0 0 0 0 0 0 0 0 0 0 0 0 0 0 0 0 0 0 0 0 0 0 0 0 0 0 0 0
1 2 2 2 1 0 0 0 0 0 0 0 0 0 0 0 0 0 0 0 0 0 0 0 0 0 0 0 0 0 0 0 0 0 0 0 0 0 0 0 0 0 0
1 1 1 1 0 0 0 0 0 0 0 0 0 0 0 0 0 0 0 0 0 0 0 0 0 0 0 0 0 0 0 0 0 0 0 0 0 0 0 0 0 0 0
0 0 0 0 0 0 0 0 0 0 0 0 0 0 0 0 0 0 0 0 0 0 0 0 0 0 0 0 0 0 0 0 0 0 0 0 0 0 0 0 0 0 0
0 0 0 0 0 0 0 0 0 0 0 0 0 0 0 0 0 0 0 0 0 0 0 0 0 0 0 0 0 0 0 0 0 0 0 0 0 0 0 0 0 0 0
0 0 0 0 0 0 0 0 0 0 0 0 0 0 0 0 0 0 0 0 0 0 0 0 0 0 0 0 0 0 0 0 0 0 0 0 0 0 0 0 0 0 0
0 0 0 0 0 0 0 0 0 0 0 0 0 0 0 0 0 0 0 0 0 0 0 0 0 0 0 0 0 0 0 0 0 0 0 0 0 0 0 0 0 0 0
0 0 0 0 0 0 0 0 0 0 0 0 0 0 0 0 0 0 0 0 0 0 0 0 0 0 0 0 0 0 0 0 0 0 0 0 0 0 0 0 0 0 0
0 0 0 0 0 0 0 0 0 0 0 0 0 0 0 0 0 0 0 0 0 0 0 0 0 0 0 0 0 0 0 0 0 0 0 0 0 0 0 0 0 0 0
0 0 0 0 0 0 0 0 0 0 0 0 0 0 0 0 0 0 0 0 0 0 0 0 0 0 0 0 0 0 0 0 0 0 0 0 0 0 0 0 0 0 0
0 0 0 0 0 0 0 0 0 0 0 0 0 0 0 0 0 0 0 0 0 0 0 0 0 0 0 0 0 0 0 0 0 0 0 0 0 0 0 0 0 0 0
0 0 0 0 0 0 0 0 0 0 0 0 0 0 0 0 0 0 0 0 0 0 0 0 0 0 0 0 0 0 0 0 0 0 0 0 0 0 0 0 0 0 0
Wind_Speed
2 2 2 2 3 3 3 3 3 4 4 4 4 4 4 4 3 3 3 8 9 9 9 9 9 8 8 7 7 6 6 6 6 6 6 7 7 8 9 10 10 10 10
2 2 2 2 3 3 3 3 3 3 3 3 4 4 4 3 3 3 3 4 7 9 10 10 10 10 10 9 8 8 7 7 7 7 7 7 7 7 8 9 9 9 10
2 2 2 2 3 3 3 3 3 3 3 3 3 4 3 4 3 3 4 3 3 7 9 10 11 11 11 11 10 10 9 9 8 9 8 8 8 7 7 7 8 8 9
2 2 2 2 3 2 2 3 3 3 3 3 3 3 3 2 3 4 3 4 3 3 6 9 10 11 11 11 11 10 10 10 9 9 9 9 8 8 7 7 7 7 7
2 2 2 2 2 2 2 3 3 3 3 3 2 2 2 2 3 3 4 4 4 4 4 6 8 10 11 11 12 11 11 10 10 10 10 10 9 9 8 8 8 8 8
2 2 1 2 2 2 2 2 3 3 2 2 2 1 1 1 1 2 3 3 4 5 5 5 4 5 9 11 12 12 12 11 11 11 11 11 11 10 10 9 9 9 9
1 1 1 1 1 1 2 3 2 2 2 2 2 1 1 1 1 1 2 2 3 4 4 5 4 4 4 7 10 12 13 12 12 12 12 12 12 12 11 10 10 10 10
1 1 1 1 1 1 1 2 2 2 1 2 3 3 2 2 2 0 1 2 3 2 3 4 4 4 4 4 7 11 12 12 12 12 12 12 12 12 12 11 11 11 11
1 1 1 1 1 1 1 2 2 2 2 1 2 3 3 2 2 1 0 1 2 2 2 2 3 4 4 4 5 7 11 12 12 12 12 12 12 12 12 13 12 12 12
2 2 2 2 1 1 1 1 1 2 2 2 1 1 2 3 3 3 2 1 2 2 2 2 3 3 4 3 5 8 11 11 12 12 12 12 12 12 12 13 13 13 13
2 2 2 2 2 1 1 2 2 2 2 2 2 2 2 2 4 4 4 3 3 2 2 3 2 2 3 3 4 7 10 11 11 12 12 12 12 13 13 13 13 13 13
2 2 3 3 3 2 2 2 3 3 3 3 3 3 3 3 3 4 5 5 5 3 3 3 3 3 2 3 4 7 8 10 11 11 12 12 12 12 13 13 13 13 13
2 3 3 3 3 3 3 3 3 4 4 4 4 3 3 4 4 4 5 5 6 4 4 3 3 3 3 3 3 6 7 9 10 11 11 11 11 12 12 12 13 13 13
3 3 3 4 4 4 3 3 3 4 4 4 5 5 4 4 4 4 4 5 6 5 5 5 2 3 3 3 4 6 5 8 9 10 10 11 11 11 11 11 12 12 12
3 4 4 4 4 4 4 4 4 4 4 4 5 5 5 4 4 4 4 5 5 6 5 4 3 2 3 3 4 5 6 7 9 9 10 10 10 10 11 11 11 11 11
3 4 4 4 4 4 4 5 4 5 5 5 4 5 5 4 4 4 4 5 5 6 6 4 4 4 4 4 5 6 6 8 8 8 9 9 9 10 10 10 11 11 11
3 4 4 4 4 5 5 5 5 5 6 6 6 6 6 6 5 4 4 5 5 6 8 7 5 5 7 7 5 5 6 6 5 7 9 9 9 9 10 10 10 10 10
3 4 4 5 5 5 5 6 6 6 7 7 7 7 7 6 7 6 5 6 6 7 7 9 6 6 7 7 7 7 6 5 5 7 8 9 9 9 10 10 10 10 10
4 4 5 5 5 5 5 6 7 7 7 8 8 8 8 8 8 6 7 7 6 6 7 7 7 6 5 5 7 7 7 6 6 6 7 8 9 9 9 9 9 9 10
4 5 5 5 5 5 6 6 7 7 8 8 8 8 9 8 9 8 7 8 7 7 7 7 7 6 6 5 6 6 6 5 5 4 6 7 8 8 9 9 9 9 9
4 5 5 5 5 5 5 6 7 7 8 9 9 9 9 10 10 9 7 7 7 7 6 7 7 6 6 5 5 5 6 6 6 4 5 5 5 5 5 6 7 8 9
4 5 5 6 6 5 7 10 9 8 9 9 9 9 9 10 12 14 14 13 11 9 8 7 7 8 8 7 6 5 6 6 5 2 5 6 5 5 5 4 6 8 8
5 5 6 6 7 7 9 11 11 9 9 9 10 9 8 8 10 10 12 14 14 15 14 10 10 9 8 7 7 7 7 7 7 5 5 6 5 6 4 5 8 8 8
5 6 6 7 7 8 10 12 12 10 10 10 10 10 10 10 9 10 9 10 10 11 11 10 10 9 8 7 7 7 8 8 8 5 4 6 5 6 5 5 6 7 8
6 6 6 7 8 9 10 12 12 8 8 10 10 10 11 11 12 13 11 10 10 9 10 13 13 12 12 12 9 6 6 6 6 5 3 4 4 6 6 5 4 6 8
6 6 7 8 9 10 11 12 12 7 8 8 8 9 12 13 13 13 11 10 11 10 8 8 10 11 10 10 12 9 6 6 5 4 3 3 4 4 5 3 4 4 6
Wind_Direction
48 43 43 32 26 19 13 6 5 10 9 10 11 6 4 3 1 4 27 34 22 17 16 12 10 8 5 6 6 3 356 347 337 321 300 285 280 273 268 262 260 261 261
39 32 42 33 25 15 7 359 8 5 7 7 10 12 9 8 10 8 5 29 35 26 22 19 15 10 9 11 13 14 8 359 349 342 334 321 302 293 281 272 268 266 266
22 30 34 32 23 9 3 3 8 4 13 10 16 16 15 11 10 13 10 8 24 36 31 25 23 19 14 12 12 15 13 8 1 354 345 338 331 313 299 289 278 273 268
16 24 29 31 19 10 5 7 2 1 10 3 8 17 19 19 18 24 25 21 18 16 33 33 28 23 17 11 7 6 6 6 2 357 352 346 339 330 314 302 295 285 278
18 26 31 29 23 18 15 9 9 359 3 359 359 8 16 19 23 31 35 33 30 22 19 36 35 29 22 16 11 6 3 1 359 355 350 345 341 334 325 314 307 297 286
15 17 31 30 24 22 17 11 13 9 360 347 333 347 11 19 21 28 31 38 34 28 22 17 18 28 26 18 14 8 3 360 357 354 352 349 341 330 325 318 310 306 302
359 359 359 16 13 17 13 5 358 360 8 346 296 275 207 179 23 33 21 25 33 28 22 17 12 5 10 16 15 8 3 359 354 351 350 347 345 338 328 324 317 309 302
299 307 320 332 356 352 1 4 353 329 350 359 322 298 279 205 165 55 13 12 10 15 13 12 11 9 0 356 13 8 0 355 351 349 346 345 343 338 334 331 326 321 312
262 262 269 287 312 324 335 341 335 329 325 353 351 316 304 310 322 211 253 323 343 344 348 353 359 1 357 353 352 3 359 351 346 343 341 339 338 338 339 337 331 324 318
265 253 255 259 271 276 290 299 310 300 297 300 288 291 300 314 294 293 234 243 305 308 317 320 332 347 350 346 351 357 353 345 342 340 339 338 337 335 336 337 337 335 331
252 249 253 255 255 255 265 280 280 273 271 278 282 283 265 258 258 271 282 286 282 276 292 295 299 314 333 336 339 352 347 343 341 338 336 337 337 336 334 334 332 332 333
248 245 247 247 248 247 248 255 259 256 255 259 264 266 270 267 267 266 277 289 289 285 281 272 278 292 312 319 332 345 339 338 338 336 335 336 337 336 333 331 329 330 331
248 249 245 245 245 241 241 245 248 252 250 252 255 259 260 263 273 271 273 284 286 283 269 253 254 274 291 301 316 330 323 330 332 331 330 332 334 334 330 329 329 329 330
261 264 253 250 249 245 240 237 246 247 249 248 252 255 257 257 255 257 264 278 284 273 256 256 242 255 281 291 319 311 307 320 323 324 324 327 328 328 325 326 328 328 329
258 257 255 252 249 244 244 242 244 245 246 247 250 250 253 257 254 255 256 258 270 282 282 271 262 258 279 289 308 298 301 312 313 314 316 320 321 322 321 321 324 325 325
252 255 257 254 251 246 242 239 244 245 246 247 248 251 252 254 251 248 248 250 252 265 275 282 277 284 285 284 290 289 293 299 296 303 309 312 314 316 317 318 319 321 323
254 255 259 257 253 249 244 242 244 245 246 250 246 247 251 252 251 247 245 246 248 250 263 272 272 276 276 279 284 284 288 289 289 297 302 303 307 310 312 313 314 317 320
267 262 260 257 257 255 252 249 251 249 249 252 251 249 250 247 247 249 246 246 248 248 258 270 274 274 274 280 284 286 284 280 282 291 295 296 301 304 308 309 310 314 317
275 268 258 258 261 261 258 254 254 255 253 253 253 252 252 249 248 246 246 249 250 251 252 263 272 275 275 278 283 281 280 278 281 282 282 286 294 299 302 306 306 309 314
274 273 267 264 263 260 257 256 256 256 256 256 254 253 253 250 251 251 249 249 250 251 251 256 264 268 270 273 275 281 284 281 282 281 283 287 289 288 291 298 301 305 310
276 275 273 270 266 261 257 260 260 260 261 260 257 253 251 249 250 252 252 250 248 248 250 253 258 263 263 264 267 275 281 289 282 277 288 288 287 284 287 288 291 301 305
278 274 271 272 271 264 261 263 266 265 262 261 262 260 255 248 247 247 249 250 250 251 251 252 256 258 265 267 270 273 279 284 283 281 291 288 284 281 288 291 304 304 303
281 278 274 273 272 270 268 270 268 269 265 263 262 262 259 252 247 248 248 248 248 249 250 255 258 260 267 268 271 270 269 274 276 293 292 281 278 278 283 286 296 297 300
276 278 277 276 276 273 272 274 274 270 266 263 261 260 260 258 248 247 251 251 250 248 247 249 254 260 262 264 262 266 274 276 274 268 265 275 284 285 288 281 280 288 298
278 277 277 276 276 277 273 274 275 272 266 266 262 259 257 259 254 248 249 252 254 253 248 248 255 262 263 262 261 260 260 263 270 266 248 265 285 296 288 273 264 275 289
278 280 276 274 273 275 275 275 274 268 268 270 267 261 256 256 258 253 248 250 253 255 252 249 249 252 254 255 251 247 251 254 262 269 239 252 281 306 296 272 273 280 282